User: anonymous   Login
Location: Brahman Valley
(40.6513°N, 111.8855°W)
Time: 12:34:51
(UTC+00:00)
Language:

Explorer 7 - Orbit

View from above orbital plane
View from above orbital plane
View from above satellite
View from above satellite

Ground track
Ground track

The orbit data is extracted from the following two-line orbital elements,

1    22U 59009A   21133.16529943  .00000553  00000-0  63910-4 0  9992
2    22  50.2847 354.6328 0138617  78.7602 282.8888 14.95543733274662
Epoch (UTC): 13 May 2021 03:58:01
Eccentricity: 0.0138617
inclination: 50.2847°
perigee height: 484 km
apogee height: 677 km
right ascension of ascending node: 354.6328°
argument of perigee: 78.7602°
revolutions per day: 14.95543733
mean anomaly at epoch: 282.8888°
orbit number at epoch: 27466

The dashed part of the orbit path shows where the satellite is in the earth's shadow,  

DLR